User: anonymous   Login
Location: Newark
(34.1333°N, 7.9667°W)
Time: 09:25:29
(UTC+00:00)
Language:

S-56A Canister/Altair - Orbit

View from above orbital plane
View from above orbital plane
View from above satellite
View from above satellite

Ground track
Ground track

The orbit data is extracted from the following two-line orbital elements,

1 00082U 61004B   21165.63609035 -.00000140  00000-0 -63361-4 0  9998
2 00082  38.8575 297.2720 1175726  31.5396 335.0637 12.26034204852267
Epoch (UTC): 14 June 2021 15:15:58
Eccentricity: 0.1175726
inclination: 38.8575°
perigee height: 632 km
apogee height: 2500 km
right ascension of ascending node: 297.2720°
argument of perigee: 31.5396°
revolutions per day: 12.26034204
mean anomaly at epoch: 335.0637°
orbit number at epoch: 85226

The dashed part of the orbit path shows where the satellite is in the earth's shadow,  

DLR